sat.trackr.live / text

‹ back to catalog

STARLINK-33598

NORAD 62771 · 2025-015P

PAYLOAD ACTIVE UNKNOWN

§ Identity

Operator
Country
US
Launch date
2025-01-21
Launch site
AFWTR
Launch vehicle
Mass (kg)
RCS (m²)

Purposes: comms

External: N2YO · Heavens-Above · Gunter

§ Orbital elements

Epoch: 2026-05-25T04:00:03.998880Z

Period
93.90 min
Inclination
53.1601°
Eccentricity
0.0001407
Mean motion
15.33561466 rev/d
Perigee alt
464.2 km
Apogee alt
466.2 km
Semi-major
6,843.3 km
B*
-2.8578e-4
RAAN
326.9657°
Arg perigee
65.2007°
Mean anomaly
299.3139°
Rev number
580

§ Raw data

STARLINK-335981 62771U 25015P   26145.16671295 -.00009763  00000+0 -28578-3 0  99902 62771  53.1601 326.9657 0001407  65.2007 299.3139 15.33561466  5800

JSON: /api/v1/satellites/62771 · /tle

For live sub-satellite position, see the globe view (requires WebGL).

§ Visibility from observer

Set your observer location to see the next 7 days of passes ≥ 10°. The values pass through the URL so the page stays shareable.

No JS? Fill the form by hand. The geolocation button needs JavaScript.